DW6513 Weather Reports


time (UTC)temp
C
wind
direction
speed
KPH
gust
KPH
rain 1hr
cm
rain 24hr
cm
rain mn
cm
humidity
%
barometer
mb
20260504221803 28 235 1.6 0.0 0.00 0.08 0.08 50 1003.8
20260504221303 27 213 1.6 0.0 0.00 0.08 0.08 50 1003.8
20260504220803 27 280 1.6 9.7 0.00 0.08 0.08 49 1003.6
20260504220302 27 242 1.6 9.7 0.00 0.08 0.08 48 1003.6
20260504215803 27 33 4.8 9.7 0.00 0.08 0.08 49 1003.6
20260504215304 28 130 3.2 14.5 0.00 0.08 0.08 49 1003.6
20260504214803 28 145 1.6 14.5 0.00 0.08 0.08 48 1003.6
20260504214304 28 145 3.2 4.8 0.00 0.08 0.08 49 1003.6
20260504213804 27 303 8.0 12.9 0.00 0.08 0.08 50 1003.6
20260504213303 27 174 4.8 19.3 0.00 0.08 0.08 50 1003.6
20260504212304 28 130 1.6 8.0 0.00 0.08 0.08 52 1004.3
20260504211803 28 190 1.6 8.0 0.00 0.08 0.08 52 1004.3
20260504211303 27 180 1.6 8.0 0.00 0.08 0.08 52 1004.3
20260504210804 27 303 3.2 3.2 0.00 0.08 0.08 55 1004.3
20260504210303 27 204 4.8 12.9 0.00 0.08 0.08 54 1004.3
20260504205803 26 167 4.8 12.9 0.00 0.08 0.08 56 1004.3
20260504205304 26 190 6.4 14.5 0.00 0.08 0.08 56 1004.3
20260504204803 25 145 4.8 19.3 0.00 0.08 0.08 57 1004.8
20260504204303 26 145 1.6 19.3 0.00 0.08 0.08 56 1004.8
20260504203803 25 33 1.6 3.2 0.00 0.08 0.08 59 1004.8
20260504203303 25 242 1.6 3.2 0.00 0.08 0.08 63 1004.8
20260504202804 24 190 1.6 3.2 0.00 0.08 0.08 65 1004.9
20260504202304 24 157 1.6 14.5 0.00 0.08 0.08 66 1004.9
20260504201803 23 123 1.6 14.5 0.00 0.08 0.08 70 1004.9
20260504201303 22 233 1.6 4.8 0.00 0.08 0.08 70 1004.9
20260504195803 21 303 1.6 4.8 0.00 0.08 0.08 75 1005.4
20260504195304 21 251 3.2 9.7 0.00 0.08 0.08 75 1005.4
20260504194302 22 240 1.6 8.0 0.00 0.08 0.08 78 1005.0
20260504193803 21 303 0.0 3.2 0.00 0.08 0.08 81 1005.0
20260504193303 20 176 0.0 0.0 0.00 0.08 0.08 84 1005.0
20260504192803 18 190 1.6 3.2 0.08 0.08 0.08 85 1006.6
20260504192304 18 149 3.2 9.7 0.08 0.08 0.08 85 1006.6
20260504191803 18 213 1.6 9.7 0.08 0.08 0.08 85 1006.6
20260504191303 17 190 0.0 4.8 0.08 0.08 0.08 85 1006.6
20260504190803 17 123 0.0 0.0 0.08 0.08 0.08 83 1006.3
20260504190303 17 197 1.6 0.0 0.08 0.08 0.08 83 1006.3
20260504185803 17 167 1.6 8.0 0.08 0.08 0.08 83 1006.3
20260504185304 17 132 1.6 8.0 0.08 0.08 0.08 83 1006.3
20260504184303 17 205 3.2 8.0 0.08 0.08 0.08 83 1006.8
20260504183803 17 303 3.2 8.0 0.08 0.08 0.08 84 1006.8
20260504183303 17 75 1.6 9.7 0.08 0.08 0.08 84 1006.8
20260504182304 18 145 0.0 0.0 0.00 0.00 0.00 72 1007.6
20260504181804 18 213 0.0 0.0 0.00 0.00 0.00 71 1007.6
20260504181303 18 213 0.0 3.2 0.00 0.00 0.00 71 1007.6
20260504180803 18 347 0.0 3.2 0.00 0.00 0.00 71 1007.0
20260504180303 18 280 0.0 0.0 0.00 0.00 0.00 71 1007.0
20260504175803 18 347 0.0 3.2 0.00 0.00 0.00 69 1007.0
20260504175304 18 336 0.0 3.2 0.00 0.00 0.00 68 1007.0
20260504174303 18 152 0.0 0.0 0.00 0.00 0.00 68 1007.3
20260504173804 18 167 0.0 0.0 0.00 0.00 0.00 67 1007.3
20260504172803 18 145 1.6 0.0 0.00 0.00 0.00 65 1006.6
20260504172304 18 145 1.6 3.2 0.00 0.00 0.00 65 1006.6
20260504171804 18 123 0.0 4.8 0.00 0.00 0.00 65 1006.6
20260504171303 19 145 0.0 0.0 0.00 0.00 0.00 64 1006.6
20260504170803 19 347 0.0 0.0 0.00 0.00 0.00 64 1007.9
20260504170303 19 142 1.6 0.0 0.00 0.00 0.00 64 1007.9
20260504160303 19 206 0.0 0.0 0.00 0.00 0.00 61 1008.2
20260504150803 20 167 3.2 9.7 0.00 0.00 0.00 57 1008.9
20260504150304 20 181 1.6 9.7 0.00 0.00 0.00 56 1008.9
20260504141303 20 228 8.0 12.9 0.00 0.00 0.00 56 1008.3
20260504140803 20 167 4.8 9.7 0.00 0.00 0.00 58 1009.1
20260504140303 20 175 3.2 9.7 0.00 0.00 0.00 58 1009.1
20260504130304 17 178 1.6 9.7 0.00 0.00 0.00 68 1009.6
20260504120304 15 217 0.0 3.2 0.00 0.00 0.00 72 1009.4
20260504110303 15 213 0.0 0.0 0.00 0.00 0.00 69 1009.9
20260504100304 16 311 0.0 0.0 0.00 0.00 0.00 66 1008.5
20260504081804 17 145 0.0 0.0 0.00 0.00 0.00 59 1008.5
20260504081304 17 145 0.0 3.2 0.00 0.00 0.00 59 1008.5
20260504050304 19 239 11.3 27.4 0.00 0.00 0.00 48 1008.4
20260504044804 20 167 11.3 16.1 0.00 0.00 0.00 47 1008.7
20260504044304 20 145 12.9 19.3 0.00 0.00 0.00 47 1008.7
20260504043804 20 145 12.9 22.5 0.00 0.00 0.00 47 1008.7
20260504043303 20 145 12.9 16.1 0.00 0.00 0.00 46 1008.7
20260504042805 20 213 11.3 16.1 0.00 0.00 0.00 46 1009.0
20260504041804 20 145 14.5 16.1 0.00 0.00 0.00 45 1009.0
20260504041304 20 134 14.5 22.5 0.00 0.00 0.00 45 1009.0
20260504040304 20 325 11.3 20.9 0.00 0.00 0.00 45 1009.3
20260504035804 20 145 8.0 12.9 0.00 0.00 0.00 45 1009.3
20260504035305 20 145 8.0 12.9 0.00 0.00 0.00 45 1009.3
20260504034804 20 167 6.4 11.3 0.00 0.00 0.00 45 1009.6
20260504033804 20 145 3.2 8.0 0.00 0.08 0.00 44 1009.6
20260504033305 20 145 1.6 4.8 0.00 0.08 0.00 44 1009.6
20260504032806 20 145 1.6 3.2 0.00 0.08 0.00 43 1009.7
20260504032304 20 179 0.0 3.2 0.00 0.08 0.00 43 1009.7
20260504031804 20 190 1.6 3.2 0.00 0.08 0.00 43 1009.7
20260504031304 20 145 1.6 4.8 0.00 0.08 0.00 42 1009.7
20260504030804 20 145 4.8 4.8 0.00 0.08 0.00 42 1009.5
20260504030304 20 145 4.8 11.3 0.00 0.08 0.00 42 1009.5
20260504025804 20 167 6.4 11.3 0.00 0.08 0.00 42 1009.5
20260504025304 20 145 8.0 8.0 0.00 0.08 0.00 41 1009.5
20260504024304 20 145 8.0 9.7 0.00 0.08 0.00 41 1009.3
20260504023805 20 145 8.0 9.7 0.00 0.08 0.00 40 1009.3
20260504022304 21 145 4.8 11.3 0.00 0.08 0.00 40 1009.0
20260504021804 21 167 3.2 9.7 0.00 0.08 0.00 39 1009.0
20260504021304 21 188 3.2 9.7 0.00 0.08 0.00 39 1009.0
20260504020804 21 145 4.8 8.0 0.00 0.08 0.00 39 1009.2
20260504020304 21 145 4.8 8.0 0.00 0.08 0.00 39 1009.2
20260504015804 21 145 1.6 8.0 0.00 0.08 0.00 39 1009.2
20260504014804 21 303 1.6 4.8 0.00 0.08 0.00 38 1008.8
20260504014304 22 157 1.6 9.7 0.00 0.08 0.00 38 1008.8
20260504013805 22 303 1.6 0.0 0.00 0.08 0.00 38 1008.8
20260504013304 22 189 3.2 4.8 0.00 0.08 0.00 38 1008.8
20260504012806 22 167 3.2 4.8 0.00 0.08 0.00 38 1008.5
20260504012304 22 168 1.6 4.8 0.00 0.08 0.00 37 1008.5
20260504011806 22 197 4.8 11.3 0.00 0.08 0.00 36 1008.7
20260503235304 25 253 11.3 37.0 0.00 0.08 0.00 27 1009.2
20260503233804 25 167 4.8 11.3 0.00 0.08 0.00 26 1009.2
20260503233305 25 171 9.7 11.3 0.00 0.08 0.00 28 1009.2
20260503232306 26 100 11.3 19.3 0.00 0.08 0.00 27 1009.0
20260503231806 26 325 11.3 25.7 0.00 0.08 0.00 27 1009.0
20260503231316 26 145 11.3 25.7 0.00 0.08 0.00 26 1009.0
20260503230804 27 145 11.3 24.1 0.00 0.08 0.00 24 1009.4
20260503230301 27 153 11.3 16.1 0.00 0.08 0.00 24 1009.4
20260503225804 28 21 9.7 19.3 0.00 0.08 0.00 24 1009.4
20260503224802 27 213 11.3 22.5 0.00 0.08 0.00 24 1009.2
20260503224302 27 157 12.9 27.4 0.00 0.08 0.00 24 1009.2
20260503222801 27 145 14.5 22.5 0.00 0.08 0.00 24 1009.3
20260503222301 27 157 12.9 27.4 0.00 0.08 0.00 24 1009.3